OpenBCM V1.13 (Linux)

Packet Radio Mailbox

DB0FHN

[JN59NK Nuernberg]

 Login: GUEST





  
LU1HVK > KEP      16.09.19 08:03l 243 Lines 12025 Bytes #999 (0) @ WW
BID : 31867_LU1HVK
Read: DF7EAV DJ6UX GUEST
Subj: TLE 16 09
Path: DB0FHN<DB0PM<OE2XZR<OE1XAB<HG8LXL<XE1FH<VE2PKT<N3HYM<KC9VYU<N7HPX<
      LU1HVK
Sent: 190916/0523Z 31867@LU1HVK.2594.CBA.ARG.SA LinBPQ6.0.18

                         _    _   _ _ _   ___     ___  __
                        | |  | | | / | | | \ \   / / |/ /
                        | |  | | | | | |_| |\ \ / /| ' /
                        | |__| |_| | |  _  | \ V / | . \
                        |_____\___/|_|_| |_|  \_/  |_|\_\

     BBS/NODO - CORDOBA (LEONES-FF87UH) - LU1HVK-4 NODO - LU1HVK-3 APRS

+----------------------------------------------------------------------------+
OSCAR 7
1  7530U 74089B   19258.92491553 -.00000049 +00000-0 -22632-4 0  9990
2  7530 101.7540 225.7023 0012035 173.2004 252.2862 12.53639788051469
OSCAR 11 (UoSAT 2)
1 14781U 84021B   19258.89278296 +.00000038 +00000-0 +10794-4 0  9998
2 14781 097.6072 279.3725 0009296 035.5839 324.5994 14.83105954890988
OSCAR 19 (LUSAT)
1 20442U 90005G   19258.83816337 -.00000004  00000-0  14788-4 0  9997
2 20442  98.6538 200.7122 0010670 244.9223 115.0854 14.32932677549148
EYESAT A
1 22825U 93061C   19258.56734086 -.00000023  00000-0  91924-5 0  9998
2 22825  98.9101 249.2600 0009490  98.9213 261.3043 14.30066239354652
ITAMSAT
1 22826U 93061D   19258.89804978 -.00000019 +00000-0 +10613-4 0  9993
2 22826 098.9041 249.5787 0010035 088.1167 272.1164 14.30400226354653
RADIO ROSTO
1 23439U 94085A   19258.91605023 -.00000050 +00000-0 -22037-3 0  9992
2 23439 064.8191 331.8391 0145502 095.9083 265.8446 11.27568171017957
JAS 2
1 24278U 96046B   19258.87484386 -.00000030 +00000-0 +54216-5 0  9998
2 24278 098.5510 040.2315 0350502 008.9766 351.7428 13.53092833139616
TECHSAT 1B
1 25397U 98043D   19258.87616825 -.00000019 +00000-0 +10737-4 0  9991
2 25397 098.6932 197.9594 0002154 114.0332 246.1072 14.23670421100345
ISS (ZARYA)
1 25544U 98067A   19259.03923575  .00009729  00000-0  17753-3 0  9993
2 25544  51.6438 270.6616 0007668  51.6350  11.1301 15.50098401189350
PCSAT
1 26931U 01043C   19258.92082276 -.00000012 +00000-0 +27141-4 0  9993
2 26931 067.0507 133.4266 0007453 271.5630 088.4617 14.30552227937662
SAUDISAT 1C
1 27607U 02058C   19258.87332822 -.00000029 +00000-0 +16777-4 0  9991
2 27607 064.5545 136.9344 0077086 239.2589 120.0906 14.75571089900069
CUTE-1
1 27844U 03031E   19258.93216335 +.00000031 +00000-0 +33474-4 0  9998
2 27844 098.6852 265.8145 0010718 128.7105 231.5032 14.22194290840931
CUBESAT XI 4
1 27848U 03031J   19258.87937036 +.00000023 +00000-0 +30344-4 0  9997
2 27848 098.6928 266.2812 0010448 139.5855 220.6101 14.21787481840785
MOZHAYETS 4
1 27939U 03042A   19258.79816402  .00000071  00000-0  21251-4 0  9994
2 27939  98.0535  32.9400 0013825 141.7845 218.4359 14.66801942853604
CUBESAT XI 5
1 28895U 05043F   19258.92584187 +.00000084 +00000-0 +24869-4 0  9998
2 28895 097.9722 038.6621 0018082 071.9141 288.4029 14.63690086740308
CUTE-1.7+APD II
1 32785U 08021C   19258.83404628 +.00000140 +00000-0 +20705-4 0  9999
2 32785 097.5540 254.3628 0012336 333.9499 026.1096 14.88343297616873
DELFI C3
1 32789U 08021G   19258.72380013  .00000539  00000-0  39847-4 0  9991
2 32789  97.4569 305.6719 0012463 173.2306 186.9093 15.07106789620378
SEEDS
1 32791U 08021J   19258.83640533 +.00000228 +00000-0 +28473-4 0  9990
2 32791 097.5305 260.4229 0012035 305.2353 054.7739 14.90867351617317
YUBELEINY
1 32953U 08025A   19258.90115395  .00000020  00000-0  75656-4 0  9990
2 32953  82.4987  89.2847 0018827 296.4876  63.4273 12.43091118513394
PRISM (HITOMI)
1 33493U 09002B   19258.78033802  .00000040  00000-0  91303-5 0  9994
2 33493  98.1198 183.1121 0013928 247.7778 112.1965 14.96725685578471
KKS-1 (KISEKI)
1 33499U 09002H   19258.85342923 +.00000034 +00000-0 +13132-4 0  9991
2 33499 098.3447 100.3836 0007934 285.5546 074.4786 14.75461487571943
SWISSCUBE
1 35932U 09051B   19258.91664991 +.00000085 +00000-0 +30370-4 0  9997
2 35932 098.5968 067.5472 0006533 248.8841 111.1658 14.56308591529722
BEESAT
1 35933U 09051C   19258.91425492 +.00000073 +00000-0 +27444-4 0  9994
2 35933 098.5988 069.3414 0004663 264.1118 095.9548 14.56394755529792
ITUPSAT 1
1 35935U 09051E   19258.74848698 +.00000049 +00000-0 +22410-4 0  9995
2 35935 098.6098 069.4016 0006978 262.2146 097.8258 14.55551290529569
XIWANG-1 (HOPE-1)
1 36122U 09072B   19258.73719453 -.00000011  00000-0  81602-4 0  9990
2 36122 100.0763 256.9407 0007877 137.4887 222.6839 13.16351228468599
TISAT 1
1 36799U 10035E   19258.72978387 +.00000278 +00000-0 +34132-4 0  9993
2 36799 098.1673 053.8972 0012967 149.0190 211.1795 14.91153549497832
JUGNU
1 37839U 11058B   19258.11680575 +.00000309 +00000-0 +22467-4 0  9990
2 37839 019.9604 158.5532 0018945 221.4669 284.6732 14.12658347409665
SRMSAT
1 37841U 11058D   19258.29495675 +.00000293 +00000-0 +16073-4 0  9995
2 37841 019.9708 216.0836 0012069 090.3928 066.2272 14.10638673409124
M-CUBED/EXP-1 PRIME
1 37855U 11061F   19258.78807656  .00000849  00000-0  50286-4 0  9995
2 37855 101.7115 200.1182 0173083 172.5951 187.7880 15.05575872430182
HORYU 2
1 38340U 12025D   19258.73724054  .00000125  00000-0  26215-4 0  9993
2 38340  98.3219 299.9660 0011208 194.1717 165.9179 14.75747613394295
STRAND 1
1 39090U 13009E   19258.61205289  .00000013  00000-0  19889-4 0  9995
2 39090  98.4807 103.0476 0009812  30.9998 329.1764 14.35096532343143
SOMP
1 39134U 13015E   19258.89225484 +.00000568 +00000-0 +35190-4 0  9998
2 39134 064.8619 091.4123 0035678 289.2878 070.4391 15.20311844353777
BEESAT 3
1 39135U 13015F   19258.90729467 +.00000410 +00000-0 +30101-4 0  9994
2 39135 064.8679 110.9277 0033062 299.8492 059.9349 15.17594016353398
BEESAT 2
1 39136U 13015G   19258.91234520 +.00000528 +00000-0 +36476-4 0  9998
2 39136 064.8682 114.9882 0024783 304.1626 055.7150 15.17013072353312
CUBEBUG 1
1 39153U 13018D   19258.83651600  .00000136  00000-0  24662-4 0  9992
2 39153  97.9808 356.4718 0015555 269.4941  90.4488 14.80593559345008
ZACUBE
1 39417U 13066B   19258.88108495 +.00000138 +00000-0 +23623-4 0  9990
2 39417 097.5627 267.3713 0060482 101.3017 259.5001 14.81146477314243
TRITON 1
1 39427U 13066M   19258.89129899 +.00000132 +00000-0 +29332-4 0  9990
2 39427 097.6860 230.8027 0112431 239.5801 119.4257 14.67877506311235
GOMX 1
1 39430U 13066Q   19258.83053886  .00000187  00000-0  43132-4 0  9994
2 39430  97.7533 209.5469 0151014 333.6856  25.6737 14.59283770309600
HUMSAT D
1 39433U 13066T   19258.66421269 +.00000420 +00000-0 +46218-4 0  9990
2 39433 097.5459 302.4978 0030801 006.8991 353.2647 14.92246699315169
CUBEBUG 2
1 39440U 13066AA  19258.90571760 +.00000118 +00000-0 +23336-4 0  9997
2 39440 097.6073 252.0982 0080841 154.1566 206.3718 14.75884077311936
FUNCUBE 1
1 39444U 13066AE  19258.76473202 +.00000180 +00000-0 +28345-4 0  9991
2 39444 097.5601 269.2920 0059641 095.3335 265.4687 14.81971858312531
UWE-3
1 39446U 13066AG  19258.89247624 +.00000137 +00000-0 +24753-4 0  9995
2 39446 097.5842 259.2003 0071218 128.1836 232.5820 14.78419074311857
SPROUT
1 39770U 14029E   19258.83653365 +.00000381 +00000-0 +48159-4 0  9999
2 39770 097.8869 001.5702 0009241 146.0434 214.1362 14.87417439288081
UNISAT 6
1 40012U 14033C   19258.87567301 +.00000128 +00000-0 +26360-4 0  9992
2 40012 097.7450 121.5922 0058450 168.7186 191.5349 14.74005523281826
DUCHIFAT 1
1 40021U 14033M   19258.75453948 +.00000327 +00000-0 +39193-4 0  9999
2 40021 097.9227 183.6418 0014151 113.3045 246.9664 14.90678886284812
QB50P1
1 40025U 14033R   19258.74318353 +.00000185 +00000-0 +25656-4 0  9993
2 40025 097.9028 178.2749 0013578 122.6920 237.5609 14.88979788284063
CHUBUSAT 1
1 40300U 14070C   19258.81276039  .00000514  00000-0  25282-4 0  9993
2 40300  97.3219 330.7169 0020922 100.9141  38.2152 15.22165940269575
NUDT-PHONESAT
1 40900U 15049B   19258.81351941  .00001381  00000-0  61637-4 0  9999
2 40900  97.4364 267.2842 0011527 227.5289 259.2226 15.23027277221223
ZDPS 2A
1 40901U 15049C   19258.93750181 +.00000701 +00000-0 +37979-4 0  9999
2 40901 097.4608 263.4794 0011815 251.3615 167.2259 15.17827441220774
ZDPS 2B
1 40902U 15049D   19258.78007688  .00000780  00000-0  42014-4 0  9993
2 40902  97.4559 260.7503 0011919 249.3526 197.2016 15.17676239220727
XW-2A
1 40903U 15049E   19258.75862691  .00001184  00000-0  29665-4 0  9990
2 40903  97.3298 301.9981 0013404 176.4828 323.2601 15.42078688223974
KAITUO 1A
1 40904U 15049F   19258.81560391  .00000548  00000-0  32454-4 0  9993
2 40904  97.4694 259.3110 0013018 259.2918 224.1813 15.15428446220496
OBJECT G
1 40905U 15049G   19258.82661059  .00000060  00000-0  68726-5 0  9999
2 40905  97.4738 256.7816 0014169 253.4367 227.4884 15.14338265220360
XW-2C
1 40906U 15049H   19258.86324169  .00000573  00000-0  33503-4 0  9995
2 40906  97.4704 259.4790 0013152 249.3394 229.7592 15.15748957220501
XW-2D
1 40907U 15049J   19258.95024063 +.00000302 +00000-0 +19211-4 0  9996
2 40907 097.4680 259.2447 0012602 245.6866 170.9271 15.15940163220531
LILACSAT 2
1 40908U 15049K   19258.89029094 -.00000035  00000-0  17087-5 0  9993
2 40908  97.4806 257.9198 0014413 253.5886 172.8604 15.13843460220308
XW-2F
1 40910U 15049M   19258.83900556  .00000508  00000-0  28737-4 0  9998
2 40910  97.4644 261.2646 0013304 237.1740 244.4236 15.17410314220536
XW-2B
1 40911U 15049N   19258.86614823  .00000623  00000-0  36002-4 0  9993
2 40911  97.4701 259.8254 0012529 246.8510 230.4743 15.15871324220414
KAITUO 1B
1 40912U 15049P   19258.86552177  .00000781  00000-0  39721-4 0  9993
2 40912  97.4505 265.0712 0013651 217.0961 262.5741 15.19737548220857
TIANWANG 1C (TW-1C)
1 40926U 15051B   19258.76104516  .00009029  00000-0  12513-3 0  9993
2 40926  97.1269 304.8651 0008913  49.4746  44.4036 15.57254763224014
TIANWANG 1B (TW-1B)
1 40927U 15051C   19258.87530627  .00008473  00000-0  12499-3 0  9997
2 40927  97.1308 304.1691 0009402  60.3479  26.0808 15.55574771223873
